Location: Skalnate Pleso
(49.1889°N, 20.2450°E)
Time: 00:36:18
(UTC+01:00)

Cosmos 2219 Rocket - Pass Details

Date: 19 November 2019
Orbit: 827 x 848 km, 71.0° (Epoch: 13 December)

Event Time Altitude Azimuth Distance (km) Brightness Sun altitude
Exits shadow 06:07:30 - 329° (NNW) 3,224 4.8 -7.8°
Reaches altitude 10° 06:09:29 10° 328° (NNW) 2,469 4.2 -7.5°
Maximum altitude 06:15:07 70° 246° (WSW) 897 2.2 -6.6°
Drops below altitude 10° 06:20:44 10° 163° (SSE) 2,463 5.2 -5.8°
Sets 06:23:11 0° 162° (SSE) 3,396 6.0 -5.4°
